Zurück zum Katalog

HULIANWANG DIGUI-157

AktivKommunikationLEO
NORAD 68131·PAYLOAD·🇨🇳 China

Gestartet Mar 12, 2026 von Wenchang Space Launch Site

Loading…

Nächste Überflüge (nächste 24 Stunden)

TLE

AktuellSource: Space-Track

Epoche: Sep 14, 2026, 14:25 UTC

1 68131U 26047C   26257.60085576 -.00000094  00000-0  64192-4 0  9997
2 68131  49.9993  95.5076 0001200  68.8999 291.2001 13.29325432 24968

Verfolge HULIANWANG DIGUI-157 in Echtzeit mit AllMySat

Download on the App Store